Location: Houston
(29.7631°N, 95.3631°W)
Time: 03:39:49
(UTC-06:00)

Envisat - Pass Details

Date: 29 October 2019
Orbit: 764 x 766 km, 98.1° (Epoch: 18 November)

Event Time Altitude Azimuth Distance (km) Brightness Sun altitude
Rises 20:11:14 0° 188° (S) 3,216 6.4 -20.9°
Reaches altitude 10° 20:13:43 10° 198° (SSW) 2,294 5.7 -21.4°
Maximum altitude 20:18:16 34° 262° (W) 1,253 4.7 -22.4°
Drops below altitude 10° 20:22:51 10° 326° (NNW) 2,304 5.8 -23.4°
Sets 20:25:22 0° 336° (NNW) 3,233 6.5 -24.0°
